Location: Gleizolles
(44.4833°N, 6.7667°E)
Time: 13:43:06
(UTC+00:00)

Vanguard 1 - Pass Details

Date: 02 July 2024
Orbit: 650 x 3826 km, 34.3° (Epoch: 15 July)

Event Time Altitude Azimuth Distance (km) Brightness Sun altitude
Rises 11:22:57 0° 263° (W) 5,843 14.0 68.3°
Reaches altitude 10° 11:27:47 10° 257° (WSW) 4,288 13.5 68.4°
Maximum altitude 11:37:01 38° 195° (SSW) 1,789 12.6 68.5°
Drops below altitude 10° 11:42:36 10° 128° (SE) 2,578 12.6 68.5°
Sets 11:44:49 0° 119° (ESE) 3,313 12.9 68.4°
